[[{"header":{"parameterUnit":"m.s-1","parameterCategory":1,"la1":30.2992,"la2":30.254,"lo1":-89.0895,"lo2":-89.0443,"dy":0.0025,"dx":0.0025,"nx":19,"ny":19,"refTime":"2026-05-24T09:00:00:Z","depth":0,"parameterNumber":2,"parameterNumberName":"U-component_of_WINDS"},"data":[0,0,0,-2.4291,-2.4296,-2.4535,-2.4536,-2.4824,-2.4827,0,0,0,0,0,0,0,0,0,0,0,-2.4207,-2.4208,-2.4291,-2.4296,-2.4534,-2.4536,-2.4824,-2.4827,0,0,0,0,0,0,0,0,0,0,0,-2.4206,-2.4208,-2.421,-2.4297,-2.4534,-2.4536,-2.4823,-2.465,0,0,0,0,0,0,0,0,0,0,-2.4422,-2.4329,-2.4207,-2.421,-2.4298,-2.4534,-2.4536,-2.4642,-2.4661,-2.4708,0,-2.4743,0,-2.4789,-2.4844,-2.4845,0,0,0,-2.4308,-2.4313,-2.439,-2.421,-2.43,-2.4534,-2.443,-2.4653,-2.4674,-2.4733,-2.4747,-2.4758,-2.4793,-2.4846,-2.4847,-2.5072,-2.5072,0,0,-2.4294,-2.4243,-2.4375,-2.4403,-2.4361,-2.4423,-2.4437,-2.4666,-2.468,-2.4748,-2.4765,-2.4798,-2.4848,-2.485,-2.5072,-2.5072,0,0,0,-2.4249,-2.4233,-2.4305,-2.439,-2.4434,-2.4429,-2.4446,-2.467,-2.4697,-2.4769,-2.4802,-2.4849,-2.4853,-2.5071,-2.5072,-2.5045,0,0,0,-2.4242,-2.4207,-2.4298,-2.4269,-2.4429,-2.4554,-2.4444,-2.4681,-2.4708,-2.48,-2.485,-2.4855,-2.5071,-2.5071,-2.5045,-2.5042,0,0,0,-2.4196,-2.4202,-2.4231,-2.4266,-2.4366,-2.4552,-2.4592,-2.4688,-2.4728,-2.4846,-2.4856,-2.507,-2.5071,-2.5045,-2.5041,-2.5085,0,0,0,-2.4134,-2.4207,-2.423,-2.4325,-2.4364,-2.4532,-2.4592,-2.4721,-2.4818,-2.4851,-2.5071,-2.5072,-2.5044,-2.5041,-2.5084,-2.5112,-2.5118,0,0,-2.4197,-2.4212,-2.4273,-2.43,-2.445,-2.45,-2.4649,-2.4789,-2.485,-2.4995,-2.5002,-2.5045,-2.5041,-2.5085,-2.5174,-2.5179,0,0,0,-2.4275,-2.4318,-2.4369,-2.4457,-2.4564,-2.4656,-2.4778,-2.483,-2.4956,-2.4912,-2.5075,-2.5074,-2.5102,-2.5118,-2.5122,-2.5149,-2.5077,-2.5077,-2.5076,-2.4292,-2.4362,-2.4467,-2.4565,-2.4651,-2.4776,-2.4853,-2.4945,-2.4993,-2.5031,-2.5074,-2.5119,-2.5135,-2.5139,-2.5166,-2.5095,-2.5095,-2.5095,-2.5095,-2.4392,-2.4463,-2.4523,-2.4645,-2.472,-2.4825,-2.4949,-2.498,-2.509,-2.5092,-2.512,-2.5115,-2.5141,-2.5169,-2.5094,-2.5094,-2.5094,-2.5094,-2.5094,-2.441,-2.4456,-2.4516,-2.4651,-2.4748,-2.4848,-2.495,-2.5017,-2.508,-2.5108,-2.5161,-2.5162,-2.517,-2.5128,-2.5129,-2.5129,-2.5129,-2.5129,-2.5129,-2.4405,-2.4473,-2.4549,-2.4668,-2.4733,-2.4828,-2.4954,-2.5023,-2.5115,-2.5155,-2.5156,-2.5201,-2.513,-2.5111,-2.5132,-2.5131,-2.5131,-2.5131,-2.5131,-2.4479,-2.4472,-2.4589,-2.4654,-2.4799,-2.4891,-2.4974,-2.5106,-2.5173,-2.5221,-2.5261,-2.5198,-2.5219,-2.5217,-2.5201,-2.5244,-2.5244,-2.5244,-2.5244,-2.4494,-2.451,-2.4644,-2.4744,-2.485,-2.4936,-2.507,-2.5169,-2.5273,-2.5318,-2.5322,-2.5307,-2.5302,-2.5327,-2.5322,-2.5308,-2.5378,-2.5378,-2.5378,-2.4543,-2.4573,-2.4671,-2.4767,-2.4886,-2.4987,-2.5114,-2.523,-2.5346,-2.5385,-2.5356,-2.535,-2.5327,-2.5316,-2.5353,-2.5343,-2.532,0,0]},{"header":{"parameterUnit":"m.s-1","parameterCategory":1,"la1":30.2992,"la2":30.254,"lo1":-89.0895,"lo2":-89.0443,"dy":0.0025,"dx":0.0025,"nx":19,"ny":19,"refTime":"2026-05-24T09:00:00:Z","depth":0,"parameterNumber":3,"parameterNumberName":"V-component_of_WINDS"},"data":[0,0,0,5.4581,5.4584,5.473,5.473,5.4919,5.4921,0,0,0,0,0,0,0,0,0,0,0,5.4542,5.4544,5.458,5.4584,5.473,5.473,5.4919,5.4921,0,0,0,0,0,0,0,0,0,0,0,5.4541,5.4543,5.4545,5.4585,5.473,5.473,5.4918,5.4807,0,0,0,0,0,0,0,0,0,0,5.4664,5.4634,5.4543,5.4545,5.4586,5.4729,5.473,5.4801,5.4814,5.4855,0,5.4896,0,5.4912,5.4934,5.4934,0,0,0,5.458,5.4624,5.4659,5.4545,5.4587,5.4729,5.4663,5.4808,5.4822,5.4871,5.4898,5.4905,5.4915,5.4935,5.4936,5.5195,5.5196,0,0,5.4572,5.457,5.465,5.4669,5.465,5.4658,5.4667,5.4816,5.4845,5.4899,5.491,5.4918,5.4936,5.4938,5.5194,5.5195,0,0,0,5.4552,5.4565,5.4596,5.4661,5.4687,5.4663,5.4673,5.4838,5.4849,5.4912,5.492,5.4937,5.494,5.5192,5.5194,5.5263,0,0,0,5.4547,5.4553,5.4593,5.4593,5.4685,5.4765,5.4691,5.4838,5.4855,5.4919,5.4938,5.4942,5.5191,5.5193,5.5258,5.5295,0,0,0,5.4531,5.4551,5.4574,5.4593,5.4656,5.4763,5.4782,5.4842,5.4861,5.4935,5.4942,5.519,5.5193,5.5253,5.5287,5.5362,0,0,0,5.4513,5.4632,5.4575,5.4711,5.4655,5.4805,5.4781,5.4893,5.4964,5.4938,5.5191,5.5194,5.5251,5.5282,5.5357,5.5424,5.5452,0,0,5.4662,5.465,5.473,5.4683,5.4844,5.4783,5.4953,5.5019,5.5026,5.5137,5.5144,5.5259,5.5287,5.5361,5.5612,5.5634,0,0,0,5.4777,5.4834,5.4877,5.4947,5.5002,5.5051,5.5091,5.5116,5.5211,5.5084,5.5307,5.5323,5.5367,5.5398,5.5418,5.5454,5.5209,5.5209,5.5209,5.4984,5.4989,5.5121,5.5143,5.5211,5.5252,5.5306,5.5345,5.5328,5.5381,5.5414,5.5566,5.5603,5.5618,5.5656,5.545,5.5451,5.5451,5.5451,5.5202,5.5283,5.526,5.538,5.5383,5.5483,5.5526,5.5511,5.5602,5.5542,5.558,5.5513,5.5642,5.5675,5.5456,5.5455,5.5455,5.5454,5.5454,5.5338,5.5378,5.5407,5.5507,5.5583,5.56,5.5689,5.5688,5.5688,5.5726,5.5759,5.5758,5.5756,5.5742,5.5743,5.5743,5.5744,5.5744,5.5745,5.5467,5.5497,5.5574,5.5642,5.5686,5.5743,5.5785,5.5827,5.5873,5.5865,5.5865,5.5843,5.5655,5.5607,5.5753,5.5751,5.575,5.575,5.5749,5.5684,5.5635,5.5753,5.5798,5.5876,5.5951,5.5949,5.6035,5.6069,5.6113,5.6082,5.5944,5.5931,5.5915,5.5876,5.6082,5.6082,5.6082,5.6082,5.5798,5.5792,5.5912,5.5982,5.6051,5.6061,5.6191,5.6224,5.6249,5.627,5.624,5.6188,5.6173,5.6168,5.6147,5.611,5.6372,5.6372,5.6372,5.5931,5.5931,5.6044,5.6071,5.6132,5.6183,5.6305,5.6384,5.6403,5.6384,5.6286,5.6274,5.6189,5.6162,5.614,5.6108,5.6039,0,0]}]]